owner,sensor,date,latitude,longitude,sea_surface_height_above_sea_level,qcFlag 
TCOON,ioos:station:TCOON:518:1,2017-04-01T00:18:00Z,29.5150,-94.5133,1.486,1111122 
TCOON,ioos:station:TCOON:518:1,2017-04-01T01:24:00Z,29.5150,-94.5133,1.48,1111122 
TCOON,ioos:station:TCOON:518:1,2017-04-01T02:18:00Z,29.5150,-94.5133,1.46,1111122 
TCOON,ioos:station:TCOON:518:1,2017-04-01T03:18:00Z,29.5150,-94.5133,1.414,1111122 
TCOON,ioos:station:TCOON:518:1,2017-04-01T04:18:00Z,29.5150,-94.5133,1.354,1111122 
TCOON,ioos:station:TCOON:518:1,2017-04-01T05:18:00Z,29.5150,-94.5133,1.302,1111122 
TCOON,ioos:station:TCOON:518:1,2017-04-01T06:18:00Z,29.5150,-94.5133,1.274,1111122 
TCOON,ioos:station:TCOON:518:1,2017-04-01T07:18:00Z,29.5150,-94.5133,1.237,1111122 
TCOON,ioos:station:TCOON:518:1,2017-04-01T08:24:00Z,29.5150,-94.5133,1.18,1111122 
TCOON,ioos:station:TCOON:518:1,2017-04-01T09:18:00Z,29.5150,-94.5133,1.165,1111122 
TCOON,ioos:station:TCOON:518:1,2017-04-01T10:18:00Z,29.5150,-94.5133,1.204,1111122 
TCOON,ioos:station:TCOON:518:1,2017-04-01T11:18:00Z,29.5150,-94.5133,1.294,1111122 
TCOON,ioos:station:TCOON:518:1,2017-04-01T12:18:00Z,29.5150,-94.5133,1.385,1111122 
TCOON,ioos:station:TCOON:518:1,2017-04-01T13:18:00Z,29.5150,-94.5133,1.425,1111122 
TCOON,ioos:station:TCOON:518:1,2017-04-01T14:18:00Z,29.5150,-94.5133,1.501,1111122 
TCOON,ioos:station:TCOON:518:1,2017-04-01T15:18:00Z,29.5150,-94.5133,1.596,1111122 
TCOON,ioos:station:TCOON:518:1,2017-04-01T16:18:00Z,29.5150,-94.5133,1.686,1111122 
TCOON,ioos:station:TCOON:518:1,2017-04-01T17:18:00Z,29.5150,-94.5133,1.729,1111122 
TCOON,ioos:station:TCOON:518:1,2017-04-01T18:24:00Z,29.5150,-94.5133,1.664,1111122 
TCOON,ioos:station:TCOON:518:1,2017-04-01T19:18:00Z,29.5150,-94.5133,1.685,1111122 
TCOON,ioos:station:TCOON:518:1,2017-04-01T20:18:00Z,29.5150,-94.5133,1.682,1111122 
TCOON,ioos:station:TCOON:518:1,2017-04-01T21:18:00Z,29.5150,-94.5133,1.668,1111122 
TCOON,ioos:station:TCOON:518:1,2017-04-01T22:18:00Z,29.5150,-94.5133,1.642,1111122 
TCOON,ioos:station:TCOON:518:1,2017-04-01T23:18:00Z,29.5150,-94.5133,1.62,1111122 
TCOON,ioos:station:TCOON:518:1,2017-04-02T00:18:00Z,29.5150,-94.5133,1.626,1111122 
TCOON,ioos:station:TCOON:518:1,2017-04-02T01:18:00Z,29.5150,-94.5133,1.615,1111122 
TCOON,ioos:station:TCOON:518:1,2017-04-02T02:18:00Z,29.5150,-94.5133,1.617,1111122 
TCOON,ioos:station:TCOON:518:1,2017-04-02T03:18:00Z,29.5150,-94.5133,1.609,1111122 
TCOON,ioos:station:TCOON:518:1,2017-04-02T04:18:00Z,29.5150,-94.5133,1.567,1111122 
TCOON,ioos:station:TCOON:518:1,2017-04-02T05:24:00Z,29.5150,-94.5133,1.513,1111122 
TCOON,ioos:station:TCOON:518:1,2017-04-02T06:24:00Z,29.5150,-94.5133,1.433,1111122 
TCOON,ioos:station:TCOON:518:1,2017-04-02T07:18:00Z,29.5150,-94.5133,1.396,1111122 
TCOON,ioos:station:TCOON:518:1,2017-04-02T08:24:00Z,29.5150,-94.5133,1.348,1111122 
TCOON,ioos:station:TCOON:518:1,2017-04-02T09:18:00Z,29.5150,-94.5133,1.309,1111122 
TCOON,ioos:station:TCOON:518:1,2017-04-02T10:18:00Z,29.5150,-94.5133,1.267,1111122 
TCOON,ioos:station:TCOON:518:1,2017-04-02T11:18:00Z,29.5150,-94.5133,1.271,1111122 
TCOON,ioos:station:TCOON:518:1,2017-04-02T12:18:00Z,29.5150,-94.5133,1.288,1111122 
TCOON,ioos:station:TCOON:518:1,2017-04-02T13:18:00Z,29.5150,-94.5133,1.345,1111122 
TCOON,ioos:station:TCOON:518:1,2017-04-02T14:18:00Z,29.5150,-94.5133,1.429,1111122 
TCOON,ioos:station:TCOON:518:1,2017-04-02T15:24:00Z,29.5150,-94.5133,1.58,1111122 
TCOON,ioos:station:TCOON:518:1,2017-04-02T16:18:00Z,29.5150,-94.5133,1.639,1111122 
TCOON,ioos:station:TCOON:518:1,2017-04-02T17:18:00Z,29.5150,-94.5133,1.718,1111122 
TCOON,ioos:station:TCOON:518:1,2017-04-02T18:18:00Z,29.5150,-94.5133,1.818,1111122 
TCOON,ioos:station:TCOON:518:1,2017-04-02T19:18:00Z,29.5150,-94.5133,1.872,1111122 
TCOON,ioos:station:TCOON:518:1,2017-04-02T20:18:00Z,29.5150,-94.5133,1.917,1111122 
TCOON,ioos:station:TCOON:518:1,2017-04-02T21:18:00Z,29.5150,-94.5133,1.972,1111122 
TCOON,ioos:station:TCOON:518:1,2017-04-02T22:18:00Z,29.5150,-94.5133,1.971,1111122 
TCOON,ioos:station:TCOON:518:1,2017-04-02T23:18:00Z,29.5150,-94.5133,1.95,1111122 
TCOON,ioos:station:TCOON:518:1,2017-04-03T00:18:00Z,29.5150,-94.5133,1.946,1111122 
TCOON,ioos:station:TCOON:518:1,2017-04-03T01:18:00Z,29.5150,-94.5133,1.974,1111122 
TCOON,ioos:station:TCOON:518:1,2017-04-03T02:24:00Z,29.5150,-94.5133,1.96,1111122 
TCOON,ioos:station:TCOON:518:1,2017-04-03T03:18:00Z,29.5150,-94.5133,1.922,1111122 
TCOON,ioos:station:TCOON:518:1,2017-04-03T04:18:00Z,29.5150,-94.5133,1.872,1111122 
TCOON,ioos:station:TCOON:518:1,2017-04-03T05:24:00Z,29.5150,-94.5133,1.802,1111122 
TCOON,ioos:station:TCOON:518:1,2017-04-03T06:18:00Z,29.5150,-94.5133,1.747,1111122 
TCOON,ioos:station:TCOON:518:1,2017-04-03T07:18:00Z,29.5150,-94.5133,1.648,1111122 
TCOON,ioos:station:TCOON:518:1,2017-04-03T08:18:00Z,29.5150,-94.5133,1.604,1111122 
TCOON,ioos:station:TCOON:518:1,2017-04-03T09:18:00Z,29.5150,-94.5133,1.609,1111122 
TCOON,ioos:station:TCOON:518:1,2017-04-03T10:18:00Z,29.5150,-94.5133,1.566,1111122 
TCOON,ioos:station:TCOON:518:1,2017-04-03T11:18:00Z,29.5150,-94.5133,1.523,1111122 
TCOON,ioos:station:TCOON:518:1,2017-04-03T13:24:00Z,29.5150,-94.5133,1.388,1111122 
TCOON,ioos:station:TCOON:518:1,2017-04-03T14:18:00Z,29.5150,-94.5133,1.363,1111122 
TCOON,ioos:station:TCOON:518:1,2017-04-03T15:18:00Z,29.5150,-94.5133,1.334,1111122 
TCOON,ioos:station:TCOON:518:1,2017-04-03T16:18:00Z,29.5150,-94.5133,1.428,1111122 
TCOON,ioos:station:TCOON:518:1,2017-04-03T17:18:00Z,29.5150,-94.5133,1.543,1111122 
TCOON,ioos:station:TCOON:518:1,2017-04-03T18:18:00Z,29.5150,-94.5133,1.583,1111122 
TCOON,ioos:station:TCOON:518:1,2017-04-03T19:18:00Z,29.5150,-94.5133,1.576,1111122 
TCOON,ioos:station:TCOON:518:1,2017-04-03T20:18:00Z,29.5150,-94.5133,1.578,1111122 
TCOON,ioos:station:TCOON:518:1,2017-04-03T21:18:00Z,29.5150,-94.5133,1.602,1111122 
TCOON,ioos:station:TCOON:518:1,2017-04-03T22:18:00Z,29.5150,-94.5133,1.643,1111122 
TCOON,ioos:station:TCOON:518:1,2017-04-04T00:18:00Z,29.5150,-94.5133,1.654,1111122 
TCOON,ioos:station:TCOON:518:1,2017-04-04T01:18:00Z,29.5150,-94.5133,1.584,1111122 
TCOON,ioos:station:TCOON:518:1,2017-04-04T02:18:00Z,29.5150,-94.5133,1.567,1111122 
TCOON,ioos:station:TCOON:518:1,2017-04-04T03:18:00Z,29.5150,-94.5133,1.587,1111122 
TCOON,ioos:station:TCOON:518:1,2017-04-04T04:18:00Z,29.5150,-94.5133,1.568,1111122 
TCOON,ioos:station:TCOON:518:1,2017-04-04T05:18:00Z,29.5150,-94.5133,1.498,1111122 
TCOON,ioos:station:TCOON:518:1,2017-04-04T06:18:00Z,29.5150,-94.5133,1.457,1111122 
TCOON,ioos:station:TCOON:518:1,2017-04-04T07:18:00Z,29.5150,-94.5133,1.4,1111122 
TCOON,ioos:station:TCOON:518:1,2017-04-04T08:18:00Z,29.5150,-94.5133,1.357,1111122 
TCOON,ioos:station:TCOON:518:1,2017-04-04T09:24:00Z,29.5150,-94.5133,1.301,1111122 
TCOON,ioos:station:TCOON:518:1,2017-04-04T10:24:00Z,29.5150,-94.5133,1.241,1111122 
TCOON,ioos:station:TCOON:518:1,2017-04-04T11:18:00Z,29.5150,-94.5133,1.19,1111122 
TCOON,ioos:station:TCOON:518:1,2017-04-04T12:24:00Z,29.5150,-94.5133,1.128,1111122 
TCOON,ioos:station:TCOON:518:1,2017-04-04T13:24:00Z,29.5150,-94.5133,1.137,1111122 
TCOON,ioos:station:TCOON:518:1,2017-04-04T14:18:00Z,29.5150,-94.5133,1.119,1111122 
TCOON,ioos:station:TCOON:518:1,2017-04-04T15:18:00Z,29.5150,-94.5133,1.144,1111122 
TCOON,ioos:station:TCOON:518:1,2017-04-04T16:18:00Z,29.5150,-94.5133,1.236,1111122 
TCOON,ioos:station:TCOON:518:1,2017-04-04T17:18:00Z,29.5150,-94.5133,1.329,1111122 
TCOON,ioos:station:TCOON:518:1,2017-04-04T18:18:00Z,29.5150,-94.5133,1.399,1111122 
TCOON,ioos:station:TCOON:518:1,2017-04-04T19:24:00Z,29.5150,-94.5133,1.481,1111122 
TCOON,ioos:station:TCOON:518:1,2017-04-04T20:24:00Z,29.5150,-94.5133,1.586,1111122 
TCOON,ioos:station:TCOON:518:1,2017-04-04T21:24:00Z,29.5150,-94.5133,1.594,1111122 
TCOON,ioos:station:TCOON:518:1,2017-04-04T22:18:00Z,29.5150,-94.5133,1.553,1111122 
TCOON,ioos:station:TCOON:518:1,2017-04-06T14:18:00Z,29.5150,-94.5133,0.877,1111122 
TCOON,ioos:station:TCOON:518:1,2017-04-06T15:18:00Z,29.5150,-94.5133,0.827,1111122 
TCOON,ioos:station:TCOON:518:1,2017-04-06T16:18:00Z,29.5150,-94.5133,0.834,1111122 
TCOON,ioos:station:TCOON:518:1,2017-04-06T17:18:00Z,29.5150,-94.5133,0.902,1111122 
TCOON,ioos:station:TCOON:518:1,2017-04-06T18:18:00Z,29.5150,-94.5133,0.966,1111122 
TCOON,ioos:station:TCOON:518:1,2017-04-06T19:18:00Z,29.5150,-94.5133,1.051,1111122 
TCOON,ioos:station:TCOON:518:1,2017-04-06T20:18:00Z,29.5150,-94.5133,1.122,1111122 
TCOON,ioos:station:TCOON:518:1,2017-04-06T21:18:00Z,29.5150,-94.5133,1.189,1111122 
TCOON,ioos:station:TCOON:518:1,2017-04-06T22:18:00Z,29.5150,-94.5133,1.255,1111122 
TCOON,ioos:station:TCOON:518:1,2017-04-06T23:18:00Z,29.5150,-94.5133,1.276,1111122 
TCOON,ioos:station:TCOON:518:1,2017-04-07T00:18:00Z,29.5150,-94.5133,1.291,1111122 
TCOON,ioos:station:TCOON:518:1,2017-04-07T01:18:00Z,29.5150,-94.5133,1.259,1111122 
TCOON,ioos:station:TCOON:518:1,2017-04-07T02:18:00Z,29.5150,-94.5133,1.241,1111122 
TCOON,ioos:station:TCOON:518:1,2017-04-07T03:18:00Z,29.5150,-94.5133,1.23,1111122 
TCOON,ioos:station:TCOON:518:1,2017-04-07T04:18:00Z,29.5150,-94.5133,1.219,1111122 
TCOON,ioos:station:TCOON:518:1,2017-04-07T05:18:00Z,29.5150,-94.5133,1.208,1111122 
TCOON,ioos:station:TCOON:518:1,2017-04-07T06:24:00Z,29.5150,-94.5133,1.28,1111122 
TCOON,ioos:station:TCOON:518:1,2017-04-07T07:18:00Z,29.5150,-94.5133,1.307,1111122 
TCOON,ioos:station:TCOON:518:1,2017-04-07T08:18:00Z,29.5150,-94.5133,1.307,1111122 
TCOON,ioos:station:TCOON:518:1,2017-04-07T09:18:00Z,29.5150,-94.5133,1.349,1111122 
TCOON,ioos:station:TCOON:518:1,2017-04-07T10:18:00Z,29.5150,-94.5133,1.324,1111122 
TCOON,ioos:station:TCOON:518:1,2017-04-07T11:18:00Z,29.5150,-94.5133,1.277,1111122 
TCOON,ioos:station:TCOON:518:1,2017-04-07T12:18:00Z,29.5150,-94.5133,1.201,1111122 
TCOON,ioos:station:TCOON:518:1,2017-04-07T13:18:00Z,29.5150,-94.5133,1.145,1111122 
TCOON,ioos:station:TCOON:518:1,2017-04-07T14:18:00Z,29.5150,-94.5133,1.086,1111122 
TCOON,ioos:station:TCOON:518:1,2017-04-07T15:18:00Z,29.5150,-94.5133,1.033,1111122 
TCOON,ioos:station:TCOON:518:1,2017-04-07T16:18:00Z,29.5150,-94.5133,1.02,1111122 
TCOON,ioos:station:TCOON:518:1,2017-04-07T17:18:00Z,29.5150,-94.5133,1.01,1111122 
TCOON,ioos:station:TCOON:518:1,2017-04-07T18:18:00Z,29.5150,-94.5133,0.983,1111122 
TCOON,ioos:station:TCOON:518:1,2017-04-07T19:18:00Z,29.5150,-94.5133,1.137,1111122 
TCOON,ioos:station:TCOON:518:1,2017-04-07T20:18:00Z,29.5150,-94.5133,1.208,1111122 
TCOON,ioos:station:TCOON:518:1,2017-04-07T21:18:00Z,29.5150,-94.5133,1.256,1111122 
TCOON,ioos:station:TCOON:518:1,2017-04-07T22:18:00Z,29.5150,-94.5133,1.325,1111122 
TCOON,ioos:station:TCOON:518:1,2017-04-07T23:18:00Z,29.5150,-94.5133,1.33,1111122 
TCOON,ioos:station:TCOON:518:1,2017-04-08T00:18:00Z,29.5150,-94.5133,1.319,1111122 
TCOON,ioos:station:TCOON:518:1,2017-04-08T01:18:00Z,29.5150,-94.5133,1.316,1111122 
TCOON,ioos:station:TCOON:518:1,2017-04-08T02:18:00Z,29.5150,-94.5133,1.29,1111122 
TCOON,ioos:station:TCOON:518:1,2017-04-08T03:18:00Z,29.5150,-94.5133,1.267,1111122 
TCOON,ioos:station:TCOON:518:1,2017-04-08T04:18:00Z,29.5150,-94.5133,1.272,1111122 
TCOON,ioos:station:TCOON:518:1,2017-04-08T05:18:00Z,29.5150,-94.5133,1.272,1111122 
TCOON,ioos:station:TCOON:518:1,2017-04-08T06:18:00Z,29.5150,-94.5133,1.258,1111122 
TCOON,ioos:station:TCOON:518:1,2017-04-08T07:18:00Z,29.5150,-94.5133,1.269,1111122 
TCOON,ioos:station:TCOON:518:1,2017-04-08T08:18:00Z,29.5150,-94.5133,1.321,1111122 
TCOON,ioos:station:TCOON:518:1,2017-04-08T09:18:00Z,29.5150,-94.5133,1.341,1111122 
TCOON,ioos:station:TCOON:518:1,2017-04-08T10:18:00Z,29.5150,-94.5133,1.361,1111122 
TCOON,ioos:station:TCOON:518:1,2017-04-08T11:18:00Z,29.5150,-94.5133,1.312,1111122 
TCOON,ioos:station:TCOON:518:1,2017-04-08T12:18:00Z,29.5150,-94.5133,1.321,1111122 
TCOON,ioos:station:TCOON:518:1,2017-04-08T13:18:00Z,29.5150,-94.5133,1.275,1111122 
TCOON,ioos:station:TCOON:518:1,2017-04-08T14:18:00Z,29.5150,-94.5133,1.218,1111122 
TCOON,ioos:station:TCOON:518:1,2017-04-08T15:18:00Z,29.5150,-94.5133,1.175,1111122 
TCOON,ioos:station:TCOON:518:1,2017-04-08T16:18:00Z,29.5150,-94.5133,1.14,1111122 
TCOON,ioos:station:TCOON:518:1,2017-04-08T17:18:00Z,29.5150,-94.5133,1.13,1111122 
TCOON,ioos:station:TCOON:518:1,2017-04-08T18:18:00Z,29.5150,-94.5133,1.132,1111122 
TCOON,ioos:station:TCOON:518:1,2017-04-08T19:18:00Z,29.5150,-94.5133,1.16,1111122 
TCOON,ioos:station:TCOON:518:1,2017-04-08T20:18:00Z,29.5150,-94.5133,1.208,1111122 
TCOON,ioos:station:TCOON:518:1,2017-04-08T21:18:00Z,29.5150,-94.5133,1.227,1111122 
TCOON,ioos:station:TCOON:518:1,2017-04-08T22:18:00Z,29.5150,-94.5133,1.328,1111122 
TCOON,ioos:station:TCOON:518:1,2017-04-08T23:18:00Z,29.5150,-94.5133,1.354,1111122 
TCOON,ioos:station:TCOON:518:1,2017-04-09T00:18:00Z,29.5150,-94.5133,1.352,1111122 
TCOON,ioos:station:TCOON:518:1,2017-04-09T01:18:00Z,29.5150,-94.5133,1.341,1111122 
TCOON,ioos:station:TCOON:518:1,2017-04-09T02:18:00Z,29.5150,-94.5133,1.334,1111122 
TCOON,ioos:station:TCOON:518:1,2017-04-09T03:18:00Z,29.5150,-94.5133,1.339,1111122 
TCOON,ioos:station:TCOON:518:1,2017-04-09T04:18:00Z,29.5150,-94.5133,1.318,1111122 
TCOON,ioos:station:TCOON:518:1,2017-04-09T05:18:00Z,29.5150,-94.5133,1.315,1111122 
TCOON,ioos:station:TCOON:518:1,2017-04-09T06:18:00Z,29.5150,-94.5133,1.303,1111122 
TCOON,ioos:station:TCOON:518:1,2017-04-09T07:18:00Z,29.5150,-94.5133,1.303,1111122 
TCOON,ioos:station:TCOON:518:1,2017-04-09T08:18:00Z,29.5150,-94.5133,1.364,1111122 
TCOON,ioos:station:TCOON:518:1,2017-04-09T09:18:00Z,29.5150,-94.5133,1.436,1111122 
TCOON,ioos:station:TCOON:518:1,2017-04-09T10:18:00Z,29.5150,-94.5133,1.485,1111122 
TCOON,ioos:station:TCOON:518:1,2017-04-09T11:18:00Z,29.5150,-94.5133,1.527,1111122 
TCOON,ioos:station:TCOON:518:1,2017-04-09T12:18:00Z,29.5150,-94.5133,1.538,1111122 
TCOON,ioos:station:TCOON:518:1,2017-04-09T13:18:00Z,29.5150,-94.5133,1.502,1111122 
TCOON,ioos:station:TCOON:518:1,2017-04-09T14:12:00Z,29.5150,-94.5133,1.465,1111122 
TCOON,ioos:station:TCOON:518:1,2017-04-09T15:18:00Z,29.5150,-94.5133,1.393,1111122 
TCOON,ioos:station:TCOON:518:1,2017-04-09T16:18:00Z,29.5150,-94.5133,1.345,1111122 
TCOON,ioos:station:TCOON:518:1,2017-04-09T17:18:00Z,29.5150,-94.5133,1.315,1111122 
TCOON,ioos:station:TCOON:518:1,2017-04-09T18:18:00Z,29.5150,-94.5133,1.281,1111122 
TCOON,ioos:station:TCOON:518:1,2017-04-09T19:18:00Z,29.5150,-94.5133,1.249,1111122 
TCOON,ioos:station:TCOON:518:1,2017-04-09T20:18:00Z,29.5150,-94.5133,1.239,1111122 
TCOON,ioos:station:TCOON:518:1,2017-04-09T21:18:00Z,29.5150,-94.5133,1.244,1111122 
TCOON,ioos:station:TCOON:518:1,2017-04-09T22:18:00Z,29.5150,-94.5133,1.253,1111122 
TCOON,ioos:station:TCOON:518:1,2017-04-09T23:18:00Z,29.5150,-94.5133,1.284,1111122 
TCOON,ioos:station:TCOON:518:1,2017-04-10T00:18:00Z,29.5150,-94.5133,1.321,1111122 
TCOON,ioos:station:TCOON:518:1,2017-04-10T01:18:00Z,29.5150,-94.5133,1.356,1111122 
TCOON,ioos:station:TCOON:518:1,2017-04-10T02:18:00Z,29.5150,-94.5133,1.374,1111122 
TCOON,ioos:station:TCOON:518:1,2017-04-10T03:18:00Z,29.5150,-94.5133,1.38,1111122 
TCOON,ioos:station:TCOON:518:1,2017-04-10T04:18:00Z,29.5150,-94.5133,1.292,1111122 
TCOON,ioos:station:TCOON:518:1,2017-04-10T05:18:00Z,29.5150,-94.5133,1.326,1111122 
TCOON,ioos:station:TCOON:518:1,2017-04-10T06:18:00Z,29.5150,-94.5133,1.363,1111122 
TCOON,ioos:station:TCOON:518:1,2017-04-10T07:18:00Z,29.5150,-94.5133,1.427,1111122 
TCOON,ioos:station:TCOON:518:1,2017-04-10T08:18:00Z,29.5150,-94.5133,1.493,1111122 
TCOON,ioos:station:TCOON:518:1,2017-04-10T09:18:00Z,29.5150,-94.5133,1.569,1111122 
TCOON,ioos:station:TCOON:518:1,2017-04-10T10:18:00Z,29.5150,-94.5133,1.619,1111122 
TCOON,ioos:station:TCOON:518:1,2017-04-10T11:18:00Z,29.5150,-94.5133,1.63,1111122 
TCOON,ioos:station:TCOON:518:1,2017-04-10T12:18:00Z,29.5150,-94.5133,1.627,1111122 
TCOON,ioos:station:TCOON:518:1,2017-04-10T13:18:00Z,29.5150,-94.5133,1.623,1111122 
TCOON,ioos:station:TCOON:518:1,2017-04-10T14:18:00Z,29.5150,-94.5133,1.553,1111122 
TCOON,ioos:station:TCOON:518:1,2017-04-10T15:18:00Z,29.5150,-94.5133,1.503,1111122 
TCOON,ioos:station:TCOON:518:1,2017-04-10T16:18:00Z,29.5150,-94.5133,1.485,1111122 
TCOON,ioos:station:TCOON:518:1,2017-04-10T17:18:00Z,29.5150,-94.5133,1.471,1111122 
TCOON,ioos:station:TCOON:518:1,2017-04-10T18:18:00Z,29.5150,-94.5133,1.423,1111122 
TCOON,ioos:station:TCOON:518:1,2017-04-10T19:18:00Z,29.5150,-94.5133,1.373,1111122 
TCOON,ioos:station:TCOON:518:1,2017-04-10T20:18:00Z,29.5150,-94.5133,1.342,1111122 
TCOON,ioos:station:TCOON:518:1,2017-04-10T21:18:00Z,29.5150,-94.5133,1.332,1111122 
TCOON,ioos:station:TCOON:518:1,2017-04-10T22:18:00Z,29.5150,-94.5133,1.361,1111122 
TCOON,ioos:station:TCOON:518:1,2017-04-10T23:18:00Z,29.5150,-94.5133,1.399,1111122 
TCOON,ioos:station:TCOON:518:1,2017-04-11T00:18:00Z,29.5150,-94.5133,1.43,1111122 
TCOON,ioos:station:TCOON:518:1,2017-04-11T01:18:00Z,29.5150,-94.5133,1.411,1111122 
TCOON,ioos:station:TCOON:518:1,2017-04-11T02:18:00Z,29.5150,-94.5133,1.361,1111122 
TCOON,ioos:station:TCOON:518:1,2017-04-11T03:18:00Z,29.5150,-94.5133,1.319,1111122 
TCOON,ioos:station:TCOON:518:1,2017-04-11T04:18:00Z,29.5150,-94.5133,1.337,1111122 
TCOON,ioos:station:TCOON:518:1,2017-04-11T05:18:00Z,29.5150,-94.5133,1.321,1111122 
TCOON,ioos:station:TCOON:518:1,2017-04-11T06:18:00Z,29.5150,-94.5133,1.307,1111122 
TCOON,ioos:station:TCOON:518:1,2017-04-11T07:18:00Z,29.5150,-94.5133,1.311,1111122 
TCOON,ioos:station:TCOON:518:1,2017-04-11T08:18:00Z,29.5150,-94.5133,1.364,1111122 
TCOON,ioos:station:TCOON:518:1,2017-04-11T09:18:00Z,29.5150,-94.5133,1.423,1111122 
TCOON,ioos:station:TCOON:518:1,2017-04-11T10:18:00Z,29.5150,-94.5133,1.468,1111122 
TCOON,ioos:station:TCOON:518:1,2017-04-11T11:18:00Z,29.5150,-94.5133,1.523,1111122 
TCOON,ioos:station:TCOON:518:1,2017-04-11T12:18:00Z,29.5150,-94.5133,1.582,1111122 
TCOON,ioos:station:TCOON:518:1,2017-04-11T13:18:00Z,29.5150,-94.5133,1.571,1111122 
TCOON,ioos:station:TCOON:518:1,2017-04-11T14:18:00Z,29.5150,-94.5133,1.537,1111122 
TCOON,ioos:station:TCOON:518:1,2017-04-11T15:18:00Z,29.5150,-94.5133,1.508,1111122 
TCOON,ioos:station:TCOON:518:1,2017-04-11T16:18:00Z,29.5150,-94.5133,1.499,1111122 
TCOON,ioos:station:TCOON:518:1,2017-04-11T17:18:00Z,29.5150,-94.5133,1.504,1111122 
TCOON,ioos:station:TCOON:518:1,2017-04-11T18:18:00Z,29.5150,-94.5133,1.513,1111122 
TCOON,ioos:station:TCOON:518:1,2017-04-11T19:18:00Z,29.5150,-94.5133,1.671,1111122 
TCOON,ioos:station:TCOON:518:1,2017-04-11T20:18:00Z,29.5150,-94.5133,1.397,1111122 
TCOON,ioos:station:TCOON:518:1,2017-04-11T21:18:00Z,29.5150,-94.5133,1.441,1111122 
TCOON,ioos:station:TCOON:518:1,2017-04-11T22:18:00Z,29.5150,-94.5133,1.519,1111122 
TCOON,ioos:station:TCOON:518:1,2017-04-11T23:18:00Z,29.5150,-94.5133,1.289,1111122 
TCOON,ioos:station:TCOON:518:1,2017-04-12T00:18:00Z,29.5150,-94.5133,1.256,1111122 
TCOON,ioos:station:TCOON:518:1,2017-04-12T01:18:00Z,29.5150,-94.5133,1.176,1111122 
TCOON,ioos:station:TCOON:518:1,2017-04-12T02:18:00Z,29.5150,-94.5133,1.184,1111122 
TCOON,ioos:station:TCOON:518:1,2017-04-12T03:18:00Z,29.5150,-94.5133,1.228,1111122 
TCOON,ioos:station:TCOON:518:1,2017-04-12T04:18:00Z,29.5150,-94.5133,1.368,1111122 
TCOON,ioos:station:TCOON:518:1,2017-04-12T05:18:00Z,29.5150,-94.5133,1.399,1111122 
TCOON,ioos:station:TCOON:518:1,2017-04-12T06:18:00Z,29.5150,-94.5133,1.327,1111122 
TCOON,ioos:station:TCOON:518:1,2017-04-12T07:18:00Z,29.5150,-94.5133,1.337,1111122 
TCOON,ioos:station:TCOON:518:1,2017-04-12T08:18:00Z,29.5150,-94.5133,1.289,1111122 
TCOON,ioos:station:TCOON:518:1,2017-04-12T09:18:00Z,29.5150,-94.5133,1.267,1111122 
TCOON,ioos:station:TCOON:518:1,2017-04-12T10:18:00Z,29.5150,-94.5133,1.349,1111122 
TCOON,ioos:station:TCOON:518:1,2017-04-12T11:18:00Z,29.5150,-94.5133,1.466,1111122 
TCOON,ioos:station:TCOON:518:1,2017-04-12T12:18:00Z,29.5150,-94.5133,1.525,1111122 
TCOON,ioos:station:TCOON:518:1,2017-04-12T13:18:00Z,29.5150,-94.5133,1.516,1111122 
TCOON,ioos:station:TCOON:518:1,2017-04-12T14:18:00Z,29.5150,-94.5133,1.516,1111122 
TCOON,ioos:station:TCOON:518:1,2017-04-12T15:18:00Z,29.5150,-94.5133,1.474,1111122 
TCOON,ioos:station:TCOON:518:1,2017-04-12T16:18:00Z,29.5150,-94.5133,1.422,1111122 
TCOON,ioos:station:TCOON:518:1,2017-04-12T17:18:00Z,29.5150,-94.5133,1.427,1111122 
TCOON,ioos:station:TCOON:518:1,2017-04-12T18:18:00Z,29.5150,-94.5133,1.435,1111122 
TCOON,ioos:station:TCOON:518:1,2017-04-12T19:18:00Z,29.5150,-94.5133,1.421,1111122 
TCOON,ioos:station:TCOON:518:1,2017-04-12T20:18:00Z,29.5150,-94.5133,1.411,1111122 
TCOON,ioos:station:TCOON:518:1,2017-04-12T21:18:00Z,29.5150,-94.5133,1.393,1111122 
TCOON,ioos:station:TCOON:518:1,2017-04-12T22:18:00Z,29.5150,-94.5133,1.326,1111122 
TCOON,ioos:station:TCOON:518:1,2017-04-12T23:18:00Z,29.5150,-94.5133,1.327,1111122 
TCOON,ioos:station:TCOON:518:1,2017-04-13T00:18:00Z,29.5150,-94.5133,1.416,1111122 
TCOON,ioos:station:TCOON:518:1,2017-04-13T01:18:00Z,29.5150,-94.5133,1.454,1111122 
TCOON,ioos:station:TCOON:518:1,2017-04-13T02:12:00Z,29.5150,-94.5133,1.403,1111122 
TCOON,ioos:station:TCOON:518:1,2017-04-13T03:18:00Z,29.5150,-94.5133,1.378,1111122 
TCOON,ioos:station:TCOON:518:1,2017-04-13T04:18:00Z,29.5150,-94.5133,1.338,1111122 
TCOON,ioos:station:TCOON:518:1,2017-04-13T05:18:00Z,29.5150,-94.5133,1.267,1111122 
TCOON,ioos:station:TCOON:518:1,2017-04-13T06:18:00Z,29.5150,-94.5133,1.235,1111122 
TCOON,ioos:station:TCOON:518:1,2017-04-13T07:18:00Z,29.5150,-94.5133,1.236,1111122 
TCOON,ioos:station:TCOON:518:1,2017-04-13T08:18:00Z,29.5150,-94.5133,1.259,1111122 
TCOON,ioos:station:TCOON:518:1,2017-04-13T09:18:00Z,29.5150,-94.5133,1.292,1111122 
TCOON,ioos:station:TCOON:518:1,2017-04-13T10:18:00Z,29.5150,-94.5133,1.352,1111122 
TCOON,ioos:station:TCOON:518:1,2017-04-13T11:18:00Z,29.5150,-94.5133,1.443,1111122 
TCOON,ioos:station:TCOON:518:1,2017-04-13T12:18:00Z,29.5150,-94.5133,1.494,1111122 
TCOON,ioos:station:TCOON:518:1,2017-04-13T13:18:00Z,29.5150,-94.5133,1.483,1111122 
TCOON,ioos:station:TCOON:518:1,2017-04-13T14:18:00Z,29.5150,-94.5133,1.516,1111122 
TCOON,ioos:station:TCOON:518:1,2017-04-13T15:18:00Z,29.5150,-94.5133,1.56,1111122 
TCOON,ioos:station:TCOON:518:1,2017-04-13T16:18:00Z,29.5150,-94.5133,1.567,1111122 
TCOON,ioos:station:TCOON:518:1,2017-04-13T17:18:00Z,29.5150,-94.5133,1.547,1111122 
TCOON,ioos:station:TCOON:518:1,2017-04-13T18:18:00Z,29.5150,-94.5133,1.514,1111122 
TCOON,ioos:station:TCOON:518:1,2017-04-13T19:18:00Z,29.5150,-94.5133,1.478,1111122 
TCOON,ioos:station:TCOON:518:1,2017-04-13T20:18:00Z,29.5150,-94.5133,1.443,1111122 
TCOON,ioos:station:TCOON:518:1,2017-04-13T21:18:00Z,29.5150,-94.5133,1.429,1111122 
TCOON,ioos:station:TCOON:518:1,2017-04-13T22:18:00Z,29.5150,-94.5133,1.403,1111122 
TCOON,ioos:station:TCOON:518:1,2017-04-13T23:18:00Z,29.5150,-94.5133,1.333,1111122 
TCOON,ioos:station:TCOON:518:1,2017-04-14T00:18:00Z,29.5150,-94.5133,1.347,1111122 
TCOON,ioos:station:TCOON:518:1,2017-04-14T01:18:00Z,29.5150,-94.5133,1.333,1111122 
TCOON,ioos:station:TCOON:518:1,2017-04-14T02:18:00Z,29.5150,-94.5133,1.35,1111122 
TCOON,ioos:station:TCOON:518:1,2017-04-14T03:18:00Z,29.5150,-94.5133,1.394,1111122 
TCOON,ioos:station:TCOON:518:1,2017-04-14T04:18:00Z,29.5150,-94.5133,1.39,1111122 
TCOON,ioos:station:TCOON:518:1,2017-04-14T05:18:00Z,29.5150,-94.5133,1.339,1111122 
TCOON,ioos:station:TCOON:518:1,2017-04-14T06:18:00Z,29.5150,-94.5133,1.274,1111122 
TCOON,ioos:station:TCOON:518:1,2017-04-14T07:18:00Z,29.5150,-94.5133,1.246,1111122 
TCOON,ioos:station:TCOON:518:1,2017-04-14T08:18:00Z,29.5150,-94.5133,1.245,1111122 
TCOON,ioos:station:TCOON:518:1,2017-04-14T09:18:00Z,29.5150,-94.5133,1.248,1111122 
TCOON,ioos:station:TCOON:518:1,2017-04-14T10:18:00Z,29.5150,-94.5133,1.27,1111122 
TCOON,ioos:station:TCOON:518:1,2017-04-14T11:18:00Z,29.5150,-94.5133,1.295,1111122 
TCOON,ioos:station:TCOON:518:1,2017-04-14T12:18:00Z,29.5150,-94.5133,1.355,1111122 
TCOON,ioos:station:TCOON:518:1,2017-04-14T13:18:00Z,29.5150,-94.5133,1.445,1111122 